[[{"header":{"parameterUnit":"m.s-1","parameterCategory":1,"la1":30.2991,"la2":30.254,"lo1":-89.0895,"lo2":-89.0444,"dy":0.0017,"dx":0.0017,"nx":28,"ny":28,"refTime":"2025-08-15T09:00:00:Z","depth":0,"parameterNumber":2,"parameterNumberName":"U-component_of_WINDS"},"data":[0,0,0,0,0,0,0,0,0,0,0,0,0,0,0,0,0,0,0,0,0,0,0,0,0,0,0,0,0,0,0,0,0,0,0,0,0,0,0,0,0,0,0,0,0,0,0,0,0,0,0,0,0,0,0,0,0,0,3.2376,3.238,0,3.274,3.2744,3.2748,3.283,3.2827,3.2825,3.2823,3.3182,3.3193,3.3205,0,0,0,0,0,0,0,0,0,0,0,0,0,3.1747,3.1758,3.2376,3.238,3.2385,3.2739,3.2744,3.2749,3.283,3.2827,3.2824,3.2821,3.3178,3.3192,3.3206,0,0,0,0,0,0,0,0,0,0,0,0,0,3.2056,3.1762,3.2375,3.2469,3.2481,3.2738,3.2744,3.275,3.2831,3.2827,3.2824,3.282,3.3173,3.319,3.3208,3.3394,0,0,3.3263,3.327,0,0,0,0,0,0,0,0,3.2038,3.2079,3.245,3.2463,3.2477,3.2736,3.2654,3.2966,3.2832,3.2698,3.2823,3.2818,3.3036,3.3064,3.3141,3.3411,3.3426,3.3264,3.3275,3.3283,3.3288,0,0,0,0,0,0,0,3.2017,3.2064,3.2519,3.2456,3.2472,3.2491,3.2531,3.2714,3.2883,3.2709,3.2716,3.2759,3.3042,3.3123,3.3149,3.3431,3.3264,3.328,3.3291,3.3298,3.3879,3.3884,0,0,0,0,0,0,3.198,3.2045,3.2508,3.253,3.2244,3.2505,3.255,3.2656,3.2881,3.2912,3.2761,3.2761,3.3094,3.3129,3.3162,3.3399,3.3283,3.3299,3.331,3.3875,3.388,3.3886,0,0,0,0,0,0,3.1967,3.2021,3.2493,3.229,3.2352,3.252,3.2639,3.2665,3.2747,3.2921,3.2951,3.2814,3.3093,3.3137,3.3338,3.3412,3.3307,3.3324,3.3869,3.3876,3.3883,3.3869,0,0,0,0,0,0,3.1948,3.2015,3.2088,3.2291,3.2362,3.2664,3.2644,3.2675,3.2779,3.2782,3.2978,3.3006,3.3093,3.3311,3.3356,3.3435,3.3338,3.3863,3.3872,3.3881,3.3864,3.3875,3.3885,0,0,0,0,0,3.1925,3.2065,3.2091,3.2146,3.2457,3.2668,3.2709,3.2809,3.2784,3.2859,3.2973,3.3,3.3398,3.3331,3.3382,3.3467,3.3859,3.387,3.388,3.3859,3.3873,3.3884,0,0,0,0,0,0,3.1858,3.2093,3.2124,3.2335,3.2482,3.2682,3.2778,3.282,3.2973,3.2968,3.3084,3.3128,3.3322,3.3415,3.3337,3.3663,3.3627,3.3649,3.3594,3.3608,3.3618,3.359,3.3352,0,0,0,0,0,3.187,3.2025,3.222,3.2386,3.246,3.2607,3.2702,3.2769,3.2923,3.2984,3.3112,3.3258,3.3418,3.3518,3.3673,3.388,3.3924,3.3964,3.3974,3.3982,3.3998,3.4118,3.4139,3.3921,3.392,3.392,0,0,3.1891,3.2039,3.2127,3.2377,3.2499,3.2655,3.2657,3.2821,3.2938,3.3007,3.3207,3.3307,3.3478,3.3684,3.3781,3.3768,3.407,3.3996,3.4001,3.4012,3.4131,3.4152,3.417,3.3928,3.3927,3.3925,0,0,3.201,3.2138,3.2293,3.2418,3.2606,3.2705,3.2742,3.2939,3.301,3.3214,3.3272,3.3412,3.3681,3.3803,3.39,3.4078,3.411,3.4126,3.4178,3.4294,3.4311,3.4327,3.4392,3.4413,3.4142,3.4142,3.4142,0,3.2011,3.2253,3.2366,3.2531,3.264,3.272,3.2878,3.2992,3.3218,3.3291,3.3276,3.3622,3.3742,3.398,3.4025,3.41,3.4147,3.4101,3.43,3.4317,3.4334,3.4396,3.442,3.4142,3.4142,3.4142,3.4142,0,3.2247,3.2414,3.2517,3.2742,3.2863,3.3023,3.3161,3.327,3.3329,3.3429,3.3638,3.3788,3.3977,3.404,3.4094,3.4287,3.4274,3.4278,3.4244,3.4353,3.4414,3.4439,3.4143,3.4143,3.4143,3.4143,0,0,3.2324,3.262,3.2655,3.2761,3.2979,3.3109,3.3275,3.3468,3.356,3.3716,3.3857,3.409,3.4099,3.4209,3.428,3.4382,3.4517,3.4375,3.438,3.4396,3.4741,3.4735,3.4761,3.4542,3.4547,3.4551,3.4727,0,3.247,3.2773,3.2886,3.3133,3.329,3.3374,3.3519,3.3668,3.3769,3.3915,3.4025,3.4189,3.4187,3.4255,3.4361,3.4478,3.4587,3.4467,3.4673,3.4679,3.4625,3.4793,3.4785,3.4943,3.4751,3.4755,3.4758,0,3.2678,3.2845,3.311,3.3317,3.3387,3.3516,3.3705,3.3846,3.4018,3.4084,3.4214,3.4281,3.4458,3.4418,3.4664,3.458,3.4672,3.4743,3.4752,3.4772,3.4722,3.4816,3.4995,3.5018,3.4797,3.4794,3.4791,0,3.2709,3.3,3.3199,3.3287,3.3532,3.3622,3.3727,3.3897,3.4008,3.4173,3.4247,3.4427,3.4526,3.4664,3.4778,3.4739,3.5015,3.4983,3.5073,3.507,3.5123,3.5117,3.5318,3.5186,3.5186,3.5185,3.5185,0,3.2858,3.3017,3.3217,3.3338,3.3521,3.365,3.3826,3.3936,3.4089,3.4233,3.4315,3.4447,3.4592,3.4743,3.4834,3.5025,3.5069,3.5126,3.5148,3.5118,3.511,3.5176,3.5167,3.5192,3.519,3.5189,3.5188,0,3.292,3.3061,3.3283,3.3502,3.3561,3.3686,3.3872,3.3993,3.4102,3.4284,3.4333,3.4502,3.4686,3.4817,3.505,3.5112,3.5317,3.5339,3.526,3.527,3.5353,3.5343,3.5601,3.5642,3.5483,3.5485,3.5486,0,3.3004,3.313,3.3366,3.3472,3.358,3.3747,3.3865,3.3999,3.4116,3.4329,3.4424,3.4616,3.4775,3.5065,3.5206,3.5387,3.5412,3.5491,3.5439,3.5407,3.5413,3.5403,3.5417,3.5496,3.5497,3.5498,3.5499,0,3.3139,3.3206,3.3373,3.3568,3.3707,3.3865,3.4024,3.4105,3.4267,3.4396,3.4589,3.4713,3.4959,3.5147,3.5344,3.545,3.5502,3.5516,3.5546,3.5514,3.5464,3.5493,3.5279,3.5507,3.5507,3.5506,3.5505,3.5505,3.3215,3.3333,3.352,3.3706,3.3842,3.3991,3.4118,3.4248,3.4413,3.4626,3.4696,3.4896,3.5072,3.5343,3.5454,3.5611,3.5606,3.5649,3.566,3.5668,3.5668,3.5443,3.5647,3.5647,3.5647,3.5647,3.5647,0,3.3353,3.3481,3.3652,3.3877,3.4024,3.4069,3.425,3.4368,3.4545,3.4708,3.4867,3.5091,3.5277,3.5438,3.5631,3.5726,3.5755,3.5772,3.5764,3.5789,3.566,3.5615,3.5746,3.5746,3.5746,3.5746,3.5746,3.5746,3.3443,3.3647,3.3737,3.4011,3.4137,3.4339,3.4439,3.4577,3.4709,3.4957,3.5115,3.5222,3.5385,3.5592,3.5765,3.5808,3.5874,3.5885,3.5932,3.5809,3.5797,3.5785,3.5743,3.5899,3.5899,3.6048,3.6049,3.605]},{"header":{"parameterUnit":"m.s-1","parameterCategory":1,"la1":30.2991,"la2":30.254,"lo1":-89.0895,"lo2":-89.0444,"dy":0.0017,"dx":0.0017,"nx":28,"ny":28,"refTime":"2025-08-15T09:00:00:Z","depth":0,"parameterNumber":3,"parameterNumberName":"V-component_of_WINDS"},"data":[0,0,0,0,0,0,0,0,0,0,0,0,0,0,0,0,0,0,0,0,0,0,0,0,0,0,0,0,0,0,0,0,0,0,0,0,0,0,0,0,0,0,0,0,0,0,0,0,0,0,0,0,0,0,0,0,0,0,2.8517,2.8518,0,2.8601,2.8602,2.8603,2.8639,2.8639,2.8639,2.8639,2.8717,2.8719,2.8721,0,0,0,0,0,0,0,0,0,0,0,0,0,2.8374,2.8376,2.8517,2.8518,2.8519,2.8601,2.8602,2.8604,2.8639,2.8639,2.8639,2.8639,2.8716,2.8719,2.8721,0,0,0,0,0,0,0,0,0,0,0,0,0,2.8445,2.8377,2.8517,2.8547,2.855,2.8601,2.8602,2.8604,2.8639,2.8639,2.8639,2.8639,2.8715,2.8718,2.8722,2.8746,0,0,2.8732,2.8733,0,0,0,0,0,0,0,0,2.8441,2.845,2.8541,2.8545,2.8549,2.861,2.8581,2.8651,2.8639,2.8605,2.8639,2.8639,2.8681,2.8687,2.8703,2.8749,2.8753,2.8732,2.8734,2.8735,2.8736,0,0,0,0,0,0,0,2.8436,2.8446,2.855,2.8543,2.8547,2.8552,2.8562,2.8594,2.8643,2.8608,2.8611,2.8621,2.8683,2.87,2.8705,2.8754,2.8732,2.8735,2.8737,2.8738,2.8819,2.8819,0,0,0,0,0,0,2.8427,2.8442,2.8547,2.8553,2.8494,2.8555,2.8566,2.859,2.8643,2.8651,2.8621,2.8622,2.8694,2.8701,2.8708,2.8737,2.8735,2.8738,2.874,2.8818,2.8819,2.8819,0,0,0,0,0,0,2.8424,2.8436,2.8544,2.8498,2.8512,2.8558,2.8585,2.8592,2.8609,2.8653,2.866,2.863,2.8694,2.8703,2.8735,2.874,2.874,2.8743,2.8818,2.8819,2.8819,2.8796,0,0,0,0,0,0,2.842,2.8435,2.8448,2.8498,2.8515,2.8574,2.8585,2.8594,2.8616,2.8618,2.8663,2.867,2.8695,2.873,2.8739,2.8745,2.8745,2.8818,2.8818,2.8819,2.8797,2.8796,2.8795,0,0,0,0,0,2.8415,2.8438,2.8449,2.8461,2.8532,2.8574,2.8583,2.8614,2.8616,2.8627,2.8654,2.8669,2.8738,2.8733,2.8743,2.875,2.8818,2.8818,2.8819,2.8797,2.8796,2.8795,0,0,0,0,0,0,2.8385,2.8445,2.8458,2.8499,2.8531,2.858,2.8596,2.8612,2.8642,2.8643,2.8676,2.8686,2.8714,2.8735,2.8729,2.8773,2.8779,2.8781,2.8759,2.8758,2.8757,2.8751,2.8748,0,0,0,0,0,2.8383,2.8416,2.8465,2.8496,2.8512,2.855,2.857,2.859,2.8624,2.8637,2.8667,2.8697,2.8725,2.8743,2.8771,2.88,2.8808,2.8808,2.8807,2.8806,2.8808,2.8821,2.8821,2.882,2.882,2.882,0,0,2.838,2.8416,2.8435,2.849,2.8518,2.8547,2.8562,2.8593,2.8613,2.8641,2.8674,2.8696,2.8731,2.876,2.8775,2.8779,2.881,2.8807,2.8806,2.8808,2.8821,2.8821,2.8821,2.882,2.882,2.882,0,0,2.8388,2.8421,2.8449,2.8476,2.8518,2.8543,2.8549,2.8595,2.8611,2.8645,2.8665,2.8687,2.8736,2.876,2.8778,2.8789,2.8802,2.8797,2.8792,2.8804,2.8804,2.8804,2.8805,2.8806,2.8798,2.8798,2.8798,0,2.8378,2.8426,2.846,2.8489,2.8511,2.8538,2.8563,2.8587,2.8635,2.8647,2.8651,2.8711,2.8736,2.877,2.8772,2.8787,2.8792,2.8792,2.8802,2.8802,2.8802,2.8804,2.8805,2.8797,2.8797,2.8797,2.8797,0,2.8409,2.8442,2.8458,2.8506,2.8529,2.8556,2.8589,2.8608,2.8624,2.8647,2.8678,2.8709,2.8743,2.8752,2.8768,2.8786,2.8787,2.8796,2.8802,2.8801,2.8803,2.8804,2.8795,2.8796,2.8796,2.8796,0,0,2.8405,2.8468,2.8473,2.8493,2.8539,2.8563,2.8588,2.8623,2.8637,2.8667,2.8687,2.8725,2.8733,2.8753,2.8771,2.8782,2.8785,2.8789,2.879,2.8785,2.8803,2.8796,2.8797,2.8794,2.8794,2.8795,2.88,0,2.8418,2.8469,2.8498,2.8535,2.8562,2.8586,2.8607,2.8635,2.8656,2.8679,2.8701,2.8727,2.8736,2.8748,2.876,2.8782,2.8789,2.8782,2.8809,2.881,2.88,2.8799,2.8792,2.8796,2.8801,2.8801,2.8801,0,2.8442,2.8473,2.8514,2.8553,2.8565,2.8585,2.8616,2.864,2.867,2.8683,2.8704,2.8722,2.8745,2.8749,2.8779,2.8774,2.8786,2.8798,2.8799,2.8802,2.8806,2.88,2.8798,2.8798,2.8804,2.8803,2.8803,0,2.8431,2.8483,2.8513,2.853,2.8577,2.8589,2.8609,2.8639,2.8657,2.8683,2.8694,2.8722,2.8736,2.8756,2.8779,2.878,2.8805,2.8812,2.8815,2.8814,2.882,2.8819,2.8818,2.8828,2.8828,2.8828,2.8828,0,2.8443,2.8466,2.8509,2.8527,2.8552,2.8581,2.8604,2.8625,2.8651,2.867,2.8692,2.8709,2.8739,2.8758,2.8776,2.8796,2.8803,2.8813,2.8817,2.8811,2.8809,2.8819,2.8819,2.8828,2.8828,2.8828,2.8828,0,2.8436,2.8466,2.85,2.8541,2.8552,2.8568,2.8601,2.8617,2.8638,2.8662,2.8669,2.8701,2.8725,2.8749,2.8782,2.8793,2.8812,2.8819,2.8803,2.8805,2.8806,2.8805,2.8811,2.8812,2.8823,2.8823,2.8822,0,2.8442,2.846,2.8503,2.8518,2.8538,2.8563,2.8581,2.8609,2.8626,2.8659,2.867,2.8696,2.8718,2.8754,2.8778,2.8801,2.8808,2.8808,2.8812,2.8803,2.8806,2.8804,2.8805,2.8807,2.8807,2.8807,2.8806,0,2.8447,2.846,2.8487,2.8517,2.8538,2.8563,2.8588,2.8598,2.863,2.8647,2.8673,2.869,2.8722,2.8746,2.8772,2.8788,2.8801,2.8805,2.8807,2.88,2.879,2.8794,2.8799,2.8805,2.8805,2.8805,2.8805,2.8805,2.8446,2.8462,2.8493,2.8521,2.8542,2.8564,2.8581,2.8603,2.8626,2.8656,2.8669,2.8694,2.8719,2.8755,2.8771,2.8788,2.8792,2.8795,2.8795,2.8796,2.8793,2.8787,2.8793,2.8793,2.8793,2.8793,2.8793,0,2.8451,2.8472,2.8496,2.8531,2.8551,2.8563,2.859,2.8605,2.8628,2.8651,2.8672,2.8699,2.8721,2.8746,2.8769,2.8778,2.8784,2.8782,2.8782,2.8785,2.8789,2.8785,2.8777,2.8777,2.8777,2.8777,2.8777,2.8777,2.8456,2.8482,2.8498,2.8534,2.8553,2.8579,2.8593,2.8612,2.8631,2.866,2.868,2.8696,2.8718,2.8743,2.8762,2.8769,2.8775,2.8772,2.878,2.8783,2.8785,2.8786,2.8782,2.8774,2.8774,2.8774,2.8774,2.8774]}]]